Wetterdaten: Samstag, 02.07.2016
Datum Zeit Temp. Auen Feucht Auen Luftdruck Regen Richtung Richtung Windben
02.07.2016 00:00 18,2 C 87 % 1014,9 hPa 0,0 mm O-NO 73 1,6 km/h (1 Bft)
02.07.2016 00:05 17,8 C 87 % 1014,9 hPa 0,0 mm O-NO 73 0,0 km/h (0 Bft)
02.07.2016 00:10 17,6 C 88 % 1014,9 hPa 0,0 mm O-NO 73 0,0 km/h (0 Bft)
02.07.2016 00:15 17,3 C 88 % 1014,8 hPa 0,0 mm O-NO 73 0,0 km/h (0 Bft)
02.07.2016 00:20 17,3 C 88 % 1014,8 hPa 0,0 mm O-NO 73 0,0 km/h (0 Bft)
02.07.2016 00:25 17,4 C 88 % 1014,8 hPa 0,0 mm O-NO 73 0,0 km/h (0 Bft)
02.07.2016 00:30 17,5 C 88 % 1014,8 hPa 0,0 mm O-NO 73 1,6 km/h (1 Bft)
02.07.2016 00:35 17,6 C 88 % 1014,8 hPa 0,0 mm O-NO 73 0,0 km/h (0 Bft)
02.07.2016 00:40 17,4 C 88 % 1014,8 hPa 0,0 mm O-NO 73 0,0 km/h (0 Bft)
02.07.2016 00:45 17,3 C 88 % 1014,7 hPa 0,0 mm O-NO 73 0,0 km/h (0 Bft)
02.07.2016 00:50 17,1 C 88 % 1014,7 hPa 0,0 mm O-NO 73 0,0 km/h (0 Bft)
02.07.2016 00:55 17,1 C 88 % 1014,6 hPa 0,0 mm O-NO 73 0,0 km/h (0 Bft)
02.07.2016 01:00 17,2 C 88 % 1014,6 hPa 0,0 mm O-NO 73 0,0 km/h (0 Bft)
02.07.2016 01:05 17,2 C 88 % 1014,6 hPa 0,0 mm O-NO 73 0,0 km/h (0 Bft)
02.07.2016 01:10 17,2 C 88 % 1014,6 hPa 0,0 mm O-NO 73 0,0 km/h (0 Bft)
02.07.2016 01:15 17,1 C 88 % 1014,5 hPa 0,0 mm O-NO 73 0,0 km/h (0 Bft)
02.07.2016 01:20 17,2 C 88 % 1014,5 hPa 0,0 mm O-NO 73 0,0 km/h (0 Bft)
02.07.2016 01:25 17,1 C 88 % 1014,5 hPa 0,0 mm O-NO 73 0,0 km/h (0 Bft)
02.07.2016 01:30 16,9 C 88 % 1014,5 hPa 0,0 mm O-NO 71 3,2 km/h (1 Bft)
02.07.2016 01:35 16,9 C 88 % 1014,5 hPa 0,0 mm NW 311 3,2 km/h (1 Bft)
02.07.2016 01:40 16,9 C 89 % 1014,5 hPa 0,0 mm W 275 4,8 km/h (1 Bft)
02.07.2016 01:45 17,0 C 88 % 1014,6 hPa 0,0 mm W 275 4,8 km/h (1 Bft)
02.07.2016 01:50 17,1 C 88 % 1014,6 hPa 0,0 mm W 262 4,8 km/h (1 Bft)
02.07.2016 01:55 17,2 C 88 % 1014,6 hPa 0,0 mm W-NW 282 4,8 km/h (1 Bft)
02.07.2016 02:00 17,4 C 88 % 1014,7 hPa 0,0 mm W 275 4,8 km/h (1 Bft)
02.07.2016 02:05 17,6 C 88 % 1014,7 hPa 0,0 mm W 275 4,8 km/h (1 Bft)
02.07.2016 02:10 17,6 C 88 % 1014,8 hPa 0,0 mm W 275 3,2 km/h (1 Bft)
02.07.2016 02:15 17,7 C 88 % 1014,8 hPa 0,0 mm W 260 8,0 km/h (2 Bft)
02.07.2016 02:20 17,8 C 88 % 1014,9 hPa 0,0 mm W-NW 283 8,0 km/h (2 Bft)
02.07.2016 02:25 17,8 C 88 % 1014,9 hPa 0,0 mm W-SW 257 9,7 km/h (2 Bft)
02.07.2016 02:30 17,9 C 87 % 1014,9 hPa 0,0 mm W-SW 252 8,0 km/h (2 Bft)
02.07.2016 02:35 18,0 C 87 % 1014,9 hPa 0,0 mm W-SW 253 8,0 km/h (2 Bft)
02.07.2016 02:40 17,9 C 87 % 1014,8 hPa 0,0 mm W 271 6,4 km/h (2 Bft)
02.07.2016 02:45 17,9 C 87 % 1014,7 hPa 0,0 mm W 271 4,8 km/h (1 Bft)
02.07.2016 02:50 17,8 C 87 % 1014,7 hPa 0,0 mm W 271 3,2 km/h (1 Bft)
02.07.2016 02:55 17,7 C 87 % 1014,6 hPa 0,0 mm W 271 1,6 km/h (1 Bft)
02.07.2016 03:00 17,7 C 87 % 1014,6 hPa 0,0 mm W 271 3,2 km/h (1 Bft)
02.07.2016 03:05 17,8 C 87 % 1014,7 hPa 0,0 mm W 271 3,2 km/h (1 Bft)
02.07.2016 03:10 17,8 C 87 % 1014,6 hPa 0,0 mm W 271 1,6 km/h (1 Bft)
02.07.2016 03:15 17,9 C 87 % 1014,6 hPa 0,0 mm W 271 3,2 km/h (1 Bft)
02.07.2016 03:20 17,9 C 87 % 1014,6 hPa 0,0 mm W 271 3,2 km/h (1 Bft)
02.07.2016 03:25 18,1 C 86 % 1014,4 hPa 0,0 mm W 271 1,6 km/h (1 Bft)
02.07.2016 03:30 18,1 C 86 % 1014,4 hPa 0,0 mm W 271 1,6 km/h (1 Bft)
02.07.2016 03:35 18,0 C 87 % 1014,4 hPa 0,0 mm W 271 0,0 km/h (0 Bft)
02.07.2016 03:40 18,0 C 87 % 1014,5 hPa 0,0 mm W 271 1,6 km/h (1 Bft)
02.07.2016 03:45 18,1 C 86 % 1014,3 hPa 0,0 mm W 271 3,2 km/h (1 Bft)
02.07.2016 03:50 18,2 C 86 % 1014,4 hPa 0,0 mm W 271 4,8 km/h (1 Bft)
02.07.2016 03:55 18,2 C 86 % 1014,2 hPa 0,0 mm W 271 1,6 km/h (1 Bft)
02.07.2016 04:00 18,2 C 87 % 1014,1 hPa 0,0 mm W 271 1,6 km/h (1 Bft)
02.07.2016 04:05 18,0 C 87 % 1014,1 hPa 0,0 mm W 271 0,0 km/h (0 Bft)
02.07.2016 04:10 17,8 C 88 % 1014,2 hPa 0,0 mm W 271 1,6 km/h (1 Bft)
02.07.2016 04:15 17,9 C 88 % 1014,1 hPa 0,0 mm W 271 3,2 km/h (1 Bft)
02.07.2016 04:20 17,8 C 88 % 1014,1 hPa 0,0 mm NO 49 3,2 km/h (1 Bft)
02.07.2016 04:25 17,7 C 88 % 1013,9 hPa 0,0 mm NO 49 3,2 km/h (1 Bft)
02.07.2016 04:30 17,7 C 88 % 1013,9 hPa 0,0 mm O 101 3,2 km/h (1 Bft)
02.07.2016 04:35 17,7 C 88 % 1013,9 hPa 0,0 mm O 101 0,0 km/h (0 Bft)
02.07.2016 04:40 17,7 C 88 % 1013,9 hPa 0,0 mm O 101 0,0 km/h (0 Bft)
02.07.2016 04:45 17,9 C 88 % 1014,0 hPa 0,0 mm O 101 1,6 km/h (1 Bft)
02.07.2016 04:50 18,0 C 88 % 1014,0 hPa 0,0 mm O 101 0,0 km/h (0 Bft)
02.07.2016 04:55 18,0 C 88 % 1014,0 hPa 0,0 mm O 101 3,2 km/h (1 Bft)
02.07.2016 05:00 17,9 C 88 % 1013,9 hPa 0,0 mm O 101 3,2 km/h (1 Bft)
02.07.2016 05:05 17,9 C 88 % 1013,9 hPa 0,0 mm O 101 0,0 km/h (0 Bft)
02.07.2016 05:10 18,0 C 88 % 1013,9 hPa 0,0 mm SW 226 3,2 km/h (1 Bft)
02.07.2016 05:15 18,1 C 88 % 1013,9 hPa 0,0 mm SW 226 1,6 km/h (1 Bft)
02.07.2016 05:20 18,1 C 88 % 1013,9 hPa 0,0 mm SW 226 1,6 km/h (1 Bft)
02.07.2016 05:25 18,0 C 88 % 1013,9 hPa 0,0 mm SW 226 1,6 km/h (1 Bft)
02.07.2016 05:30 17,9 C 88 % 1013,8 hPa 0,0 mm SW 226 1,6 km/h (1 Bft)
02.07.2016 05:35 18,0 C 88 % 1013,8 hPa 0,0 mm SW 226 0,0 km/h (0 Bft)
02.07.2016 05:40 17,9 C 88 % 1013,9 hPa 0,0 mm SW 226 0,0 km/h (0 Bft)
02.07.2016 05:45 17,9 C 88 % 1013,9 hPa 0,0 mm SW 226 1,6 km/h (1 Bft)
02.07.2016 05:50 17,9 C 88 % 1013,9 hPa 0,0 mm SW 226 0,0 km/h (0 Bft)
02.07.2016 05:55 17,8 C 88 % 1013,9 hPa 0,0 mm SW 226 0,0 km/h (0 Bft)
02.07.2016 06:00 17,7 C 89 % 1013,9 hPa 0,0 mm SW 226 0,0 km/h (0 Bft)
02.07.2016 06:05 17,8 C 89 % 1013,9 hPa 0,0 mm SW 226 0,0 km/h (0 Bft)
02.07.2016 06:10 17,7 C 89 % 1013,9 hPa 0,0 mm SW 226 0,0 km/h (0 Bft)
02.07.2016 06:15 17,9 C 89 % 1014,0 hPa 0,0 mm SW 226 0,0 km/h (0 Bft)
02.07.2016 06:20 17,8 C 89 % 1014,0 hPa 0,0 mm SW 226 0,0 km/h (0 Bft)
02.07.2016 06:25 17,8 C 89 % 1014,0 hPa 0,0 mm SW 226 0,0 km/h (0 Bft)
02.07.2016 06:30 18,0 C 88 % 1014,0 hPa 0,0 mm SW 226 0,0 km/h (0 Bft)
02.07.2016 06:35 18,2 C 89 % 1013,9 hPa 0,0 mm SW 226 3,2 km/h (1 Bft)
02.07.2016 06:40 18,3 C 88 % 1013,9 hPa 0,0 mm SW 226 3,2 km/h (1 Bft)
02.07.2016 06:45 18,6 C 88 % 1013,9 hPa 0,0 mm SW 226 1,6 km/h (1 Bft)
02.07.2016 06:50 18,8 C 88 % 1014,0 hPa 0,0 mm W 269 4,8 km/h (1 Bft)
02.07.2016 06:55 19,2 C 87 % 1013,9 hPa 0,0 mm W 263 6,4 km/h (2 Bft)
02.07.2016 07:00 19,3 C 87 % 1013,8 hPa 0,0 mm W 263 1,6 km/h (1 Bft)
02.07.2016 07:05 19,2 C 86 % 1013,7 hPa 0,0 mm W 263 0,0 km/h (0 Bft)
02.07.2016 07:10 19,1 C 87 % 1013,6 hPa 0,0 mm W 263 0,0 km/h (0 Bft)
02.07.2016 07:15 18,9 C 87 % 1013,6 hPa 0,0 mm W 263 3,2 km/h (1 Bft)
02.07.2016 07:20 18,8 C 88 % 1013,5 hPa 0,0 mm W 263 1,6 km/h (1 Bft)
02.07.2016 07:25 18,8 C 88 % 1013,4 hPa 0,0 mm W 263 0,0 km/h (0 Bft)
02.07.2016 07:30 18,9 C 88 % 1013,4 hPa 0,0 mm W 263 1,6 km/h (1 Bft)
02.07.2016 07:35 18,9 C 88 % 1013,3 hPa 0,0 mm W 263 0,0 km/h (0 Bft)
02.07.2016 07:40 19,0 C 88 % 1013,4 hPa 0,0 mm W 263 1,6 km/h (1 Bft)
02.07.2016 07:45 19,1 C 88 % 1013,6 hPa 0,0 mm W 263 1,6 km/h (1 Bft)
02.07.2016 07:50 19,0 C 88 % 1013,6 hPa 0,0 mm W 263 1,6 km/h (1 Bft)
02.07.2016 07:55 19,0 C 87 % 1013,6 hPa 0,0 mm W 263 0,0 km/h (0 Bft)
02.07.2016 08:00 19,1 C 87 % 1013,7 hPa 0,0 mm W 273 3,2 km/h (1 Bft)
02.07.2016 08:05 19,1 C 87 % 1013,7 hPa 0,0 mm W 273 3,2 km/h (1 Bft)
02.07.2016 08:10 19,2 C 87 % 1013,7 hPa 0,0 mm W 273 1,6 km/h (1 Bft)
02.07.2016 08:15 19,2 C 88 % 1013,7 hPa 0,0 mm W 273 0,0 km/h (0 Bft)
02.07.2016 08:20 19,2 C 88 % 1013,7 hPa 0,0 mm W 273 0,0 km/h (0 Bft)
02.07.2016 08:25 19,3 C 88 % 1013,7 hPa 0,0 mm W 273 1,6 km/h (1 Bft)
02.07.2016 08:30 19,7 C 88 % 1013,7 hPa 0,0 mm W 273 1,6 km/h (1 Bft)
02.07.2016 08:35 20,0 C 88 % 1013,6 hPa 0,0 mm W 273 3,2 km/h (1 Bft)
02.07.2016 08:40 20,2 C 88 % 1013,6 hPa 0,0 mm W 273 1,6 km/h (1 Bft)
02.07.2016 08:45 20,3 C 87 % 1013,5 hPa 0,0 mm W 273 4,8 km/h (1 Bft)
02.07.2016 08:50 20,5 C 87 % 1013,4 hPa 0,0 mm W-NW 285 4,8 km/h (1 Bft)
02.07.2016 08:55 20,6 C 87 % 1013,3 hPa 0,0 mm W 280 4,8 km/h (1 Bft)
02.07.2016 09:00 20,6 C 87 % 1013,3 hPa 0,0 mm W 280 3,2 km/h (1 Bft)
02.07.2016 09:05 20,7 C 87 % 1013,2 hPa 0,0 mm W 280 1,6 km/h (1 Bft)
02.07.2016 09:10 20,4 C 87 % 1013,2 hPa 0,0 mm W 275 3,2 km/h (1 Bft)
02.07.2016 09:15 20,8 C 86 % 1013,2 hPa 0,0 mm W 271 6,4 km/h (2 Bft)
02.07.2016 09:20 21,1 C 85 % 1013,2 hPa 0,0 mm W 265 4,8 km/h (1 Bft)
02.07.2016 09:25 21,3 C 85 % 1013,1 hPa 0,0 mm W 265 4,8 km/h (1 Bft)
02.07.2016 09:30 21,3 C 84 % 1013,1 hPa 0,0 mm W 271 4,8 km/h (1 Bft)
02.07.2016 09:35 21,3 C 85 % 1013,1 hPa 0,0 mm W 271 0,0 km/h (0 Bft)
02.07.2016 09:40 21,2 C 84 % 1013,0 hPa 0,0 mm W 271 1,6 km/h (1 Bft)
02.07.2016 09:45 21,2 C 83 % 1012,9 hPa 0,0 mm W 271 3,2 km/h (1 Bft)
02.07.2016 09:50 21,2 C 85 % 1012,8 hPa 0,0 mm N-NO 32 6,4 km/h (2 Bft)
02.07.2016 09:55 21,3 C 86 % 1012,9 hPa 0,0 mm N-NO 32 1,6 km/h (1 Bft)
02.07.2016 10:00 21,4 C 85 % 1012,8 hPa 0,0 mm NO 46 3,2 km/h (1 Bft)
02.07.2016 10:05 21,6 C 85 % 1012,8 hPa 0,0 mm O-NO 77 3,2 km/h (1 Bft)
02.07.2016 10:10 21,6 C 86 % 1012,9 hPa 0,0 mm O-NO 76 4,8 km/h (1 Bft)
02.07.2016 10:15 21,4 C 85 % 1012,8 hPa 0,0 mm O 95 4,8 km/h (1 Bft)
02.07.2016 10:20 21,2 C 85 % 1012,8 hPa 0,0 mm O 101 3,2 km/h (1 Bft)
02.07.2016 10:25 21,2 C 85 % 1012,7 hPa 0,0 mm O 101 3,2 km/h (1 Bft)
02.07.2016 10:30 21,2 C 84 % 1012,8 hPa 0,0 mm O 101 1,6 km/h (1 Bft)
02.07.2016 10:35 21,3 C 84 % 1012,8 hPa 0,0 mm O 101 1,6 km/h (1 Bft)
02.07.2016 10:40 21,4 C 84 % 1012,9 hPa 0,0 mm O 101 0,0 km/h (0 Bft)
02.07.2016 10:45 21,4 C 84 % 1012,9 hPa 0,0 mm O 101 0,0 km/h (0 Bft)
02.07.2016 10:50 21,4 C 84 % 1012,9 hPa 0,0 mm O 101 0,0 km/h (0 Bft)
02.07.2016 10:55 21,7 C 84 % 1012,8 hPa 0,0 mm O 101 0,0 km/h (0 Bft)
02.07.2016 11:00 21,8 C 84 % 1012,7 hPa 0,0 mm O 101 0,0 km/h (0 Bft)
02.07.2016 11:05 22,0 C 84 % 1012,7 hPa 0,0 mm O 101 1,6 km/h (1 Bft)
02.07.2016 11:10 22,7 C 83 % 1012,8 hPa 0,0 mm O 100 1,6 km/h (1 Bft)
02.07.2016 11:15 22,9 C 82 % 1012,7 hPa 0,0 mm O 100 1,6 km/h (1 Bft)
02.07.2016 11:20 23,1 C 83 % 1012,6 hPa 0,0 mm O 100 4,8 km/h (1 Bft)
02.07.2016 11:25 23,0 C 83 % 1012,6 hPa 0,0 mm O 100 1,6 km/h (1 Bft)
02.07.2016 11:30 22,8 C 83 % 1012,5 hPa 0,0 mm SO 136 3,2 km/h (1 Bft)
02.07.2016 11:35 22,8 C 83 % 1012,5 hPa 0,0 mm SO 136 1,6 km/h (1 Bft)
02.07.2016 11:40 23,0 C 82 % 1012,5 hPa 0,0 mm SO 136 1,6 km/h (1 Bft)
02.07.2016 11:45 23,2 C 83 % 1012,6 hPa 0,0 mm O-SO 121 3,2 km/h (1 Bft)
02.07.2016 11:50 23,8 C 78 % 1012,7 hPa 0,0 mm W-SW 252 3,2 km/h (1 Bft)
02.07.2016 11:55 25,2 C 71 % 1012,7 hPa 0,0 mm W 272 14,5 km/h (3 Bft)
02.07.2016 12:00 26,3 C 67 % 1012,6 hPa 0,0 mm W-SW 250 12,9 km/h (3 Bft)
02.07.2016 12:05 26,6 C 64 % 1012,7 hPa 0,0 mm W-SW 246 19,3 km/h (3 Bft)
02.07.2016 12:10 26,6 C 62 % 1012,8 hPa 0,0 mm W 263 16,1 km/h (3 Bft)
02.07.2016 12:15 26,8 C 63 % 1012,8 hPa 0,0 mm W 267 14,5 km/h (3 Bft)
02.07.2016 12:20 26,7 C 61 % 1012,9 hPa 0,0 mm W-SW 254 20,9 km/h (4 Bft)
02.07.2016 12:25 26,6 C 60 % 1012,9 hPa 0,0 mm W 278 17,7 km/h (3 Bft)
02.07.2016 12:30 26,4 C 60 % 1012,9 hPa 0,0 mm W-SW 244 19,3 km/h (3 Bft)
02.07.2016 12:35 26,6 C 59 % 1012,7 hPa 0,0 mm W 276 16,1 km/h (3 Bft)
02.07.2016 12:40 27,3 C 60 % 1012,7 hPa 0,0 mm W 277 9,7 km/h (2 Bft)
02.07.2016 12:45 27,1 C 59 % 1012,6 hPa 0,0 mm SW 232 14,5 km/h (3 Bft)
02.07.2016 12:50 27,3 C 58 % 1012,7 hPa 0,0 mm SW 215 14,5 km/h (3 Bft)
02.07.2016 12:55 27,5 C 56 % 1012,7 hPa 0,0 mm W-NW 294 17,7 km/h (3 Bft)
02.07.2016 13:00 27,7 C 57 % 1012,6 hPa 0,0 mm W-SW 254 16,1 km/h (3 Bft)
02.07.2016 13:05 27,8 C 58 % 1012,6 hPa 0,0 mm W-SW 243 12,9 km/h (3 Bft)
02.07.2016 13:10 27,8 C 58 % 1012,5 hPa 0,0 mm W-NW 285 24,1 km/h (4 Bft)
02.07.2016 13:15 27,6 C 59 % 1012,5 hPa 0,0 mm W-NW 295 17,7 km/h (3 Bft)
02.07.2016 13:20 27,8 C 56 % 1012,5 hPa 0,0 mm W-SW 251 24,1 km/h (4 Bft)
02.07.2016 13:25 27,9 C 58 % 1012,5 hPa 0,0 mm W-SW 248 14,5 km/h (3 Bft)
02.07.2016 13:30 27,7 C 58 % 1012,5 hPa 0,0 mm W 279 14,5 km/h (3 Bft)
02.07.2016 13:35 27,8 C 56 % 1012,4 hPa 0,0 mm W 263 14,5 km/h (3 Bft)
02.07.2016 13:40 27,7 C 57 % 1012,4 hPa 0,0 mm W-NW 302 16,1 km/h (3 Bft)
02.07.2016 13:45 27,6 C 58 % 1012,4 hPa 0,0 mm N 5 12,9 km/h (3 Bft)
02.07.2016 13:50 26,9 C 60 % 1012,3 hPa 0,0 mm W-SW 257 20,9 km/h (4 Bft)
02.07.2016 13:55 26,7 C 62 % 1012,2 hPa 0,0 mm W 271 17,7 km/h (3 Bft)
02.07.2016 14:00 27,3 C 61 % 1012,2 hPa 0,0 mm W 270 16,1 km/h (3 Bft)
02.07.2016 14:05 27,6 C 60 % 1012,0 hPa 0,0 mm W 275 17,7 km/h (3 Bft)
02.07.2016 14:10 27,9 C 59 % 1011,9 hPa 0,0 mm W-SW 254 12,9 km/h (3 Bft)
02.07.2016 14:15 28,2 C 60 % 1011,8 hPa 0,0 mm W-NW 293 14,5 km/h (3 Bft)
02.07.2016 14:20 28,1 C 61 % 1011,7 hPa 0,0 mm W-SW 249 11,3 km/h (2 Bft)
02.07.2016 14:25 27,8 C 61 % 1011,6 hPa 0,0 mm W 280 9,7 km/h (2 Bft)
02.07.2016 14:30 27,4 C 61 % 1011,6 hPa 0,0 mm W-NW 284 11,3 km/h (2 Bft)
02.07.2016 14:35 28,3 C 57 % 1011,6 hPa 0,0 mm W-SW 243 11,3 km/h (2 Bft)
02.07.2016 14:40 28,6 C 59 % 1011,5 hPa 0,0 mm W 260 22,5 km/h (4 Bft)
02.07.2016 14:45 27,8 C 60 % 1011,6 hPa 0,0 mm W-NW 288 14,5 km/h (3 Bft)
02.07.2016 14:50 27,4 C 59 % 1011,7 hPa 0,0 mm W 263 14,5 km/h (3 Bft)
02.07.2016 14:55 26,6 C 61 % 1012,0 hPa 0,0 mm W 259 29,0 km/h (5 Bft)
02.07.2016 15:00 24,5 C 64 % 1012,1 hPa 0,0 mm W 262 37,0 km/h (5 Bft)
02.07.2016 15:05 23,3 C 69 % 1012,4 hPa 0,0 mm SW 234 27,4 km/h (4 Bft)
02.07.2016 15:10 22,4 C 73 % 1012,7 hPa 0,0 mm W-SW 246 24,1 km/h (4 Bft)
02.07.2016 15:15 21,7 C 80 % 1012,7 hPa 0,0 mm W-NW 287 14,5 km/h (3 Bft)
02.07.2016 15:20 20,7 C 83 % 1012,7 hPa 0,2 mm W 281 14,5 km/h (3 Bft)
02.07.2016 15:25 20,3 C 85 % 1013,0 hPa 0,2 mm W-SW 254 16,1 km/h (3 Bft)
02.07.2016 15:30 19,9 C 86 % 1012,9 hPa 0,4 mm W-NW 298 12,9 km/h (3 Bft)
02.07.2016 15:35 19,4 C 87 % 1012,8 hPa 0,2 mm W-NW 286 14,5 km/h (3 Bft)
02.07.2016 15:40 19,5 C 87 % 1012,8 hPa 0,2 mm W 275 11,3 km/h (2 Bft)
02.07.2016 15:45 19,7 C 88 % 1012,9 hPa 0,0 mm W-NW 290 8,0 km/h (2 Bft)
02.07.2016 15:50 20,1 C 87 % 1012,9 hPa 0,0 mm W-NW 301 8,0 km/h (2 Bft)
02.07.2016 15:55 20,3 C 87 % 1012,8 hPa 0,0 mm W-NW 300 9,7 km/h (2 Bft)
02.07.2016 16:00 20,7 C 87 % 1012,7 hPa 0,0 mm W 261 9,7 km/h (2 Bft)
02.07.2016 16:05 20,8 C 87 % 1012,8 hPa 0,0 mm W-NW 284 11,3 km/h (2 Bft)
02.07.2016 16:10 20,8 C 86 % 1012,9 hPa 0,0 mm W 266 11,3 km/h (2 Bft)
02.07.2016 16:15 20,8 C 87 % 1013,0 hPa 0,0 mm W 279 14,5 km/h (3 Bft)
02.07.2016 16:20 21,0 C 87 % 1013,0 hPa 0,0 mm W 279 11,3 km/h (2 Bft)
02.07.2016 16:25 21,1 C 87 % 1013,0 hPa 0,0 mm W 275 12,9 km/h (3 Bft)
02.07.2016 16:30 21,2 C 86 % 1013,1 hPa 0,0 mm W-SW 246 12,9 km/h (3 Bft)
02.07.2016 16:35 21,1 C 86 % 1013,2 hPa 0,0 mm W 259 14,5 km/h (3 Bft)
02.07.2016 16:40 21,0 C 86 % 1013,1 hPa 0,0 mm W-NW 286 9,7 km/h (2 Bft)
02.07.2016 16:45 20,9 C 86 % 1013,1 hPa 0,0 mm W 275 8,0 km/h (2 Bft)
02.07.2016 16:50 20,9 C 85 % 1013,1 hPa 0,0 mm W-NW 285 11,3 km/h (2 Bft)
02.07.2016 16:55 21,0 C 85 % 1013,2 hPa 0,0 mm W-NW 285 9,7 km/h (2 Bft)
02.07.2016 17:00 21,1 C 85 % 1013,2 hPa 0,0 mm W 272 12,9 km/h (3 Bft)
02.07.2016 17:05 20,9 C 84 % 1013,2 hPa 0,0 mm W-SW 254 9,7 km/h (2 Bft)
02.07.2016 17:10 20,7 C 85 % 1013,3 hPa 0,0 mm W 267 9,7 km/h (2 Bft)
02.07.2016 17:15 20,6 C 86 % 1013,4 hPa 0,0 mm W-NW 282 8,0 km/h (2 Bft)
02.07.2016 17:20 20,4 C 86 % 1013,5 hPa 0,0 mm W 278 11,3 km/h (2 Bft)
02.07.2016 17:25 20,2 C 86 % 1013,6 hPa 0,0 mm W 268 11,3 km/h (2 Bft)
02.07.2016 17:30 20,1 C 87 % 1013,7 hPa 0,0 mm W-SW 254 8,0 km/h (2 Bft)
02.07.2016 17:35 19,8 C 87 % 1013,9 hPa 0,0 mm W 281 20,9 km/h (4 Bft)
02.07.2016 17:40 19,4 C 87 % 1014,1 hPa 0,0 mm W 278 22,5 km/h (4 Bft)
02.07.2016 17:45 18,9 C 87 % 1014,3 hPa 0,6 mm W-SW 255 19,3 km/h (3 Bft)
02.07.2016 17:50 18,6 C 88 % 1014,3 hPa 0,2 mm SW 235 16,1 km/h (3 Bft)
02.07.2016 17:55 18,5 C 89 % 1014,3 hPa 0,0 mm W 266 11,3 km/h (2 Bft)
02.07.2016 18:00 18,4 C 88 % 1014,4 hPa 0,0 mm W 266 12,9 km/h (3 Bft)
02.07.2016 18:05 18,3 C 89 % 1014,4 hPa 0,0 mm W 262 11,3 km/h (2 Bft)
02.07.2016 18:10 18,3 C 89 % 1014,4 hPa 0,0 mm W-SW 258 8,0 km/h (2 Bft)
02.07.2016 18:15 18,4 C 89 % 1014,5 hPa 0,0 mm W 269 9,7 km/h (2 Bft)
02.07.2016 18:20 18,3 C 89 % 1014,6 hPa 0,0 mm W 268 9,7 km/h (2 Bft)
02.07.2016 18:25 18,3 C 89 % 1014,7 hPa 1,0 mm W 269 8,0 km/h (2 Bft)
02.07.2016 18:30 18,1 C 89 % 1014,7 hPa 0,4 mm W 267 6,4 km/h (2 Bft)
02.07.2016 18:35 18,2 C 89 % 1014,8 hPa 0,2 mm W 265 4,8 km/h (1 Bft)
02.07.2016 18:40 18,1 C 89 % 1014,8 hPa 0,8 mm W 265 3,2 km/h (1 Bft)
02.07.2016 18:45 18,1 C 89 % 1014,9 hPa 0,8 mm W-SW 256 8,0 km/h (2 Bft)
02.07.2016 18:50 17,9 C 89 % 1014,9 hPa 0,4 mm W-SW 256 1,6 km/h (1 Bft)
02.07.2016 18:55 17,9 C 89 % 1015,0 hPa 0,2 mm W-SW 256 0,0 km/h (0 Bft)
02.07.2016 19:00 18,0 C 89 % 1015,0 hPa 0,2 mm W 261 3,2 km/h (1 Bft)
02.07.2016 19:05 17,9 C 89 % 1015,1 hPa 0,2 mm W 265 6,4 km/h (2 Bft)
02.07.2016 19:10 17,8 C 89 % 1015,3 hPa 0,0 mm W 264 6,4 km/h (2 Bft)
02.07.2016 19:15 17,8 C 89 % 1015,3 hPa 1,2 mm W-SW 254 9,7 km/h (2 Bft)
02.07.2016 19:20 17,9 C 89 % 1015,3 hPa 0,4 mm W 273 6,4 km/h (2 Bft)
02.07.2016 19:25 17,7 C 89 % 1015,5 hPa 0,8 mm W-SW 255 11,3 km/h (2 Bft)
02.07.2016 19:30 17,4 C 89 % 1015,5 hPa 0,8 mm W-SW 257 11,3 km/h (2 Bft)
02.07.2016 19:35 17,2 C 89 % 1015,6 hPa 0,2 mm W-NW 286 6,4 km/h (2 Bft)
02.07.2016 19:40 17,2 C 89 % 1015,6 hPa 0,2 mm W-NW 283 4,8 km/h (1 Bft)
02.07.2016 19:45 17,2 C 89 % 1015,7 hPa 0,2 mm W-NW 286 8,0 km/h (2 Bft)
02.07.2016 19:50 17,2 C 89 % 1015,7 hPa 0,6 mm W-NW 289 4,8 km/h (1 Bft)
02.07.2016 19:55 17,1 C 89 % 1015,9 hPa 0,6 mm W-NW 286 4,8 km/h (1 Bft)
02.07.2016 20:00 17,1 C 89 % 1015,8 hPa 0,4 mm W-NW 286 4,8 km/h (1 Bft)
02.07.2016 20:05 17,0 C 89 % 1016,0 hPa 0,4 mm W-NW 301 6,4 km/h (2 Bft)
02.07.2016 20:10 17,0 C 89 % 1016,1 hPa 0,8 mm W-NW 294 4,8 km/h (1 Bft)
02.07.2016 20:15 17,0 C 89 % 1016,1 hPa 0,4 mm W-NW 294 1,6 km/h (1 Bft)
02.07.2016 20:20 17,0 C 89 % 1016,2 hPa 0,0 mm W-NW 294 3,2 km/h (1 Bft)
02.07.2016 20:25 17,1 C 89 % 1016,2 hPa 0,0 mm W-NW 294 0,0 km/h (0 Bft)
02.07.2016 20:30 17,1 C 89 % 1016,2 hPa 0,0 mm W-NW 294 0,0 km/h (0 Bft)
02.07.2016 20:35 17,2 C 89 % 1016,3 hPa 0,0 mm W-NW 294 0,0 km/h (0 Bft)
02.07.2016 20:40 17,1 C 88 % 1016,3 hPa 0,2 mm W-NW 294 0,0 km/h (0 Bft)
02.07.2016 20:45 17,2 C 88 % 1016,4 hPa 0,0 mm W-NW 294 0,0 km/h (0 Bft)
02.07.2016 20:50 17,2 C 88 % 1016,4 hPa 0,0 mm W-NW 294 0,0 km/h (0 Bft)
02.07.2016 20:55 17,3 C 88 % 1016,4 hPa 0,0 mm W-NW 294 0,0 km/h (0 Bft)
02.07.2016 21:00 17,3 C 88 % 1016,5 hPa 0,0 mm W-NW 294 1,6 km/h (1 Bft)
02.07.2016 21:05 17,4 C 88 % 1016,6 hPa 0,2 mm W 263 4,8 km/h (1 Bft)
02.07.2016 21:10 17,2 C 88 % 1016,7 hPa 0,0 mm W 265 12,9 km/h (3 Bft)
02.07.2016 21:15 17,1 C 88 % 1016,7 hPa 0,2 mm W 263 11,3 km/h (2 Bft)
02.07.2016 21:20 16,9 C 88 % 1016,9 hPa 0,2 mm W-SW 255 12,9 km/h (3 Bft)
02.07.2016 21:25 16,8 C 88 % 1017,0 hPa 0,2 mm W 274 11,3 km/h (2 Bft)
02.07.2016 21:30 16,6 C 89 % 1017,2 hPa 0,4 mm W 259 19,3 km/h (3 Bft)
02.07.2016 21:35 16,3 C 89 % 1017,4 hPa 0,6 mm W 265 20,9 km/h (4 Bft)
02.07.2016 21:40 15,9 C 89 % 1017,8 hPa 0,2 mm SW 225 14,5 km/h (3 Bft)
02.07.2016 21:45 15,8 C 89 % 1017,8 hPa 0,2 mm W-NW 292 16,1 km/h (3 Bft)
02.07.2016 21:50 15,8 C 89 % 1017,9 hPa 0,2 mm W 269 20,9 km/h (4 Bft)
02.07.2016 21:55 15,7 C 89 % 1017,9 hPa 0,2 mm W-SW 239 9,7 km/h (2 Bft)
02.07.2016 22:00 15,7 C 89 % 1018,0 hPa 0,2 mm W 276 12,9 km/h (3 Bft)
02.07.2016 22:05 15,7 C 89 % 1018,1 hPa 0,2 mm W 267 12,9 km/h (3 Bft)
02.07.2016 22:10 15,7 C 89 % 1018,2 hPa 0,2 mm W 270 9,7 km/h (2 Bft)
02.07.2016 22:15 15,6 C 88 % 1018,3 hPa 0,2 mm W-SW 253 9,7 km/h (2 Bft)
02.07.2016 22:20 15,6 C 88 % 1018,4 hPa 0,4 mm W 270 9,7 km/h (2 Bft)
02.07.2016 22:25 15,5 C 88 % 1018,5 hPa 0,4 mm W 276 14,5 km/h (3 Bft)
02.07.2016 22:30 15,3 C 89 % 1018,6 hPa 0,2 mm W 266 11,3 km/h (2 Bft)
02.07.2016 22:35 15,2 C 88 % 1018,7 hPa 0,2 mm W-SW 248 9,7 km/h (2 Bft)
02.07.2016 22:40 15,1 C 88 % 1018,7 hPa 0,2 mm W-NW 286 17,7 km/h (3 Bft)
02.07.2016 22:45 15,0 C 89 % 1018,9 hPa 0,2 mm W-SW 257 12,9 km/h (3 Bft)
02.07.2016 22:50 14,9 C 89 % 1018,9 hPa 0,0 mm W 269 9,7 km/h (2 Bft)
02.07.2016 22:55 14,8 C 88 % 1019,0 hPa 0,0 mm W 261 8,0 km/h (2 Bft)
02.07.2016 23:00 14,8 C 88 % 1018,9 hPa 0,2 mm W-NW 286 6,4 km/h (2 Bft)
02.07.2016 23:05 14,6 C 88 % 1019,0 hPa 0,0 mm W 279 6,4 km/h (2 Bft)
02.07.2016 23:10 14,6 C 88 % 1019,1 hPa 0,0 mm W 279 6,4 km/h (2 Bft)
02.07.2016 23:15 14,6 C 88 % 1019,2 hPa 0,2 mm W-NW 283 6,4 km/h (2 Bft)
02.07.2016 23:20 14,7 C 88 % 1019,2 hPa 0,2 mm W 277 6,4 km/h (2 Bft)
02.07.2016 23:25 14,7 C 88 % 1019,4 hPa 0,2 mm W-SW 258 4,8 km/h (1 Bft)
02.07.2016 23:30 14,7 C 88 % 1019,5 hPa 0,4 mm W 272 12,9 km/h (3 Bft)
02.07.2016 23:35 14,4 C 88 % 1019,6 hPa 0,0 mm W-SW 257 17,7 km/h (3 Bft)
02.07.2016 23:40 14,4 C 88 % 1019,6 hPa 0,2 mm W 267 14,5 km/h (3 Bft)
02.07.2016 23:45 14,3 C 88 % 1019,7 hPa 0,2 mm W 273 11,3 km/h (2 Bft)
02.07.2016 23:50 14,3 C 88 % 1019,9 hPa 0,4 mm W 259 12,9 km/h (3 Bft)
02.07.2016 23:55 14,1 C 88 % 1019,9 hPa 0,2 mm W 261 14,5 km/h (3 Bft)
_ Min-Zeit 23:55 12:55 14:40 - - - 00:05
Minimum _ 14,1 C 56 % 1011,5 hPa - - - 0,0 km/h (0 Bft)
_ Max-Zeit 14:40 01:40 23:50 19:15 - - 15:00
Maximum _ 28,6 C 89 % 1019,9 hPa 1,2 mm - - 37,0 km/h
W-SW (5 Bft)
Durchschnitt _ 19,7 C 84 % 1014,3 hPa #20,6 mm W - 7,0 km/h (2 Bft)